KPDXKTMK

Guest
Details From KPDX - PORTLAND INTL
To KTMK - TILLAMOOK
Flight Number -
Tags generated
Created
Modified
Stats Distance 52 nm / 97 km
Max Altitude 6,100 ft / 1,859 m
Waypoints 3
Social Downloads 1
Likes 0
Share VATSIM

Download

Looking for another format? Having issues loading an existing format? Contact us
Advertisement - Login to hide

Notes

Basic altitude profile: - Ascent Rate: 1000ft/min - Ascent Speed: 250kts - Cruise Altitude: 15000ft - Cruise Speed: 420kts - Descent Rate: 1500ft/min - Descent Speed: 250kts Options: - Use NATs: yes - Use PACOTS: yes - Use low airways: yes - Use high airways: no

Route

KPDX NOONS KTMK

ID Type Via Altitude Latitude Longitude Leg Dist Tot Dist Heading (true) Name
O KPDX APT - 0 ft / 0 m 45.58884˚ -122.59726˚ - 0 nm - PORTLAND INTL
NOONS FIX - 6,100 ft / 1,859 m 45.54856˚ -123.00247˚ 17 nm 17 nm 262° / 262° -
O KTMK APT - 0 ft / 0 m 45.41831˚ -123.81420˚ 35 nm 52 nm 257° / 257° TILLAMOOK

Altitude Profile

Advertisement - Login to hide

KPDX

Details ICAO KPDX (PDX)
Name PORTLAND INTL
Region United States
Timezone America/Los_Angeles (UTC-7.0)
Stats Elevation 30 ft / 9 m (AMSL)
Location 45.588839° -122.597259°
Runways 3
Magnetic Variation 15.236° E

METAR

KPDX 251853Z 36004KT 10SM BKN030 BKN055 18/08 A3003 RMK AO2 SLP167 T01780083

Decode

TAF

TAF KPDX 251720Z 2518/2618 33007KT P6SM OVC025 FM251930 32008KT P6SM SCT040 BKN100 FM252300 30011G18KT P6SM BKN100 FM260900 29004KT P6SM OVC030

Decode

Departure Runways

ID Width Length Bearing (true) Bearing (mag) Surface Threshold Offset Overrun Length
03 150 ft / 46 m 6,994 ft / 2,132 m 44.93° 29.69° Asphalt 0 ft / 0 m 0 ft / 0 m
10L 150 ft / 46 m 7,986 ft / 2,434 m 119.11° 103.87° Asphalt 0 ft / 0 m 0 ft / 0 m
10R 150 ft / 46 m 10,980 ft / 3,347 m 119.09° 103.85° Asphalt 0 ft / 0 m 0 ft / 0 m
21 150 ft / 46 m 6,994 ft / 2,132 m 224.94° 209.70° Asphalt 680 ft / 207 m 0 ft / 0 m
28L 150 ft / 46 m 10,980 ft / 3,347 m 299.12° 283.88° Asphalt 0 ft / 0 m 1,000 ft / 305 m
28R 150 ft / 46 m 7,986 ft / 2,434 m 299.13° 283.89° Asphalt 0 ft / 0 m 0 ft / 0 m

KTMK

Details ICAO KTMK
Name TILLAMOOK
Region United States
Timezone America/Los_Angeles (UTC-7.0)
Stats Elevation 36 ft / 11 m (AMSL)
Location 45.418312° -123.814201°
Runways 2
Magnetic Variation 15.392° E

METAR

KTMK 251855Z AUTO 30015G20KT 10SM SCT028 15/08 A3008 RMK AO2

Decode

TAF

Not found

Destination Runways

ID Width Length Bearing (true) Bearing (mag) Surface Threshold Offset Overrun Length
01 75 ft / 23 m 2,910 ft / 887 m 30.59° 15.20° Asphalt 0 ft / 0 m 0 ft / 0 m
13 98 ft / 30 m 5,002 ft / 1,525 m 155.82° 140.43° Asphalt 0 ft / 0 m 0 ft / 0 m
19 75 ft / 23 m 2,910 ft / 887 m 210.59° 195.20° Asphalt 0 ft / 0 m 0 ft / 0 m
31 98 ft / 30 m 5,002 ft / 1,525 m 335.83° 320.44° Asphalt 0 ft / 0 m 0 ft / 0 m